SR9WXGR Weather Reports


time (UTC)temp
C
wind
direction
speed
KPH
gust
KPH
rain 1hr
cm
rain 24hr
cm
rain mn
cm
humidity
%
barometer
mb
20260508003500 15 0.0 0.0 0.00 0.00 0.00 96 975.0
20260507233500 13 0.0 0.0 0.00 0.00 0.00 96 975.0
20260507223501 15 0.0 0.0 0.00 0.00 0.00 96 975.0
20260507213500 15 0.0 0.0 0.00 0.00 0.00 96 975.0
20260507203501 15 0.0 0.0 0.00 0.00 0.00 96 975.0
20260507193500 15 0.0 0.0 0.00 0.00 0.00 96 974.0
20260507183500 15 0.0 0.0 0.00 0.00 0.00 96 974.0
20260507173500 16 0.0 0.0 0.00 0.00 0.00 96 973.0
20260507163500 16 0.0 0.0 0.00 0.00 0.00 95 973.0
20260507153500 17 0.0 0.0 0.00 0.00 0.00 82 973.0
20260507143500 20 0.0 0.0 0.00 0.00 0.00 60 973.0
20260507133500 21 0.0 0.0 0.00 0.00 0.00 43 972.0
20260507123500 25 0.0 0.0 0.00 0.00 0.00 28 972.0
20260507113500 25 0.0 0.0 0.00 0.00 0.00 28 972.0
20260507103500 25 0.0 0.0 0.00 0.00 0.00 29 972.0
20260507093500 25 0.0 0.0 0.00 0.00 0.00 30 971.0
20260507083500 23 0.0 0.0 0.00 0.00 0.00 33 971.0
20260507073500 22 0.0 0.0 0.00 0.00 0.00 35 970.0
20260507063500 20 0.0 0.0 0.00 0.00 0.00 40 970.0
20260507053500 20 0.0 0.0 0.00 0.00 0.00 40 970.0
20260507043500 18 0.0 0.0 0.00 0.00 0.00 44 970.0
20260507033501 18 0.0 0.0 0.00 0.00 0.00 41 969.0
20260507013500 18 0.0 0.0 0.00 0.00 0.00 55 969.0